STARLINK-32303, 61912

Orbit data source: Space-Track

STARLINK-32303, 61912 is a payload satellite owned by SpaceX/Seattle (US) in LEO that was launched on Mon, 11 Nov 2024 UTC via an FALCON 9 launch vehicle from the Air Force Eastern Test Range (AFETR). Payload-class satellites include a variety of spacecraft equipped with specific instruments for various scientific and technological missions. These include communications satellites like Starlink; space stations such as the ISS; scientific satellites like the Hubble; Earth observation satellites from companies like Planet Labs, Umbra, and HawkEye 360; GPS; miniature CubeSats for education and research; and military/defense satellites.

Loading next visibility...
Identifier
61912, 2024-207A
Orbit
LEO
Country
Flag of USUS
Related business
Manufacturer
SpaceX/Seattle
Mission
Operational Commercial Communications
Bus & Motor
STARLINK V2M, Unknown motor
Mass
730 kg wet, ~700 kg dry
Launch date (UTC)
2024-11-11 (10 months ago)
Launch vehicle
FALCON 9
Launch site
Air Force Eastern Test Range (AFETR)
Object type
Payload
Rocket body
Debris
Shape & HBR
Box + 2 Pan, 14.5 m
Radar Cross Section
33.884 m², Large (>1 m²)

Expand to show TLE details & history
Last TLE update: 1 day ago

TLE from 1 day ago
0 STARLINK-32303
1 61912U 24207A   25261.14147899  .00018803  00000-0  69072-3 0  9990
2 61912  43.0038 176.1529 0001451 270.1668  89.9017 15.27597340 48921
Epoch: 2025-09-18T03:23Z
TLE epoch observation values (Epoch: 2025-09-18T03:23:43.784Z)
Latitude
-0.00006°
Longitude
127.91307°
Altitude
482.771 km
Speed
7.626 km/s
True Right ascension
11h 44m 36s
True Declination
0° 00' 00"
Sunlit
Object was in daylight at epoch
Visualization orbit readout
Latitude
Unknown
Longitude
Unknown
Altitude
Unknown
Speed
Unknown
Apparent Right ascension
Unknown
Apparent Declination
Unknown
Sunlit
N/A
Visualization observer readout
Local Sidereal Time
00:29:43
Azimuth
Unknown
Elevation
Unknown
Doppler factor
Unknown
Orbital elements
Apogee altitude
485.938 km
Perigee altitude
483.946 km
Semi-major axis
6,863.079 km
Eccentricity
0.00015
Inclination
43.0038°
RAAN
176.1529°
Arg. of periapsis
270.1668°
True anomaly
89.91833°
Mean anomaly
89.9017°
Eccentric anomaly
89.91001°
Mean motion
3.81737 °/min
Orbital period
94.31 mins
BSTAR
0.00069072
Loading maneuver chart data...
Computing Atmospheric mass density...
Loading historical data...
Loading historical data...
Loading historical data...
Loading historical data...
Loading historical data...
Loading historical data...
Loading historical data...

Documentation

Showing up to 5 results
|